This demonstration page uses our WeatherBlox Daily Observations layout. Learn more.

38.89511, -77.03637

Hourly Observations for January 17, 2015

Temp ( °F °C ) Dew Point ( °F °C ) Humidity (%) Winds ( mph kmh ) Pressure ( in mb ) Visibility ( mi km ) Precip ( " mm )
12:52 am 00:52 Mostly Clear 34 1.1 16 -8.9 48 48 N 10 17 30.29 1026 10 16.0934 0 0
1:52 am 01:52 Partly Cloudy 33 0.6 15 -9.4 47 47 NNE 9 15 30.31 1026 10 16.0934 0 0
2:52 am 02:52 Mostly Clear 32 0 14 -10 47 47 NNE 8 13 30.33 1027 10 16.0934 0 0
3:52 am 03:52 Mostly Clear 31 -0.6 13 -10.6 47 47 NNE 10 17 30.34 1027 10 16.0934 0 0
4:52 am 04:52 Clear 30 -1.1 12 -11.1 47 47 NE 13 20 30.33 1027 10 16.0934 0 0
5:52 am 05:52 Clear 29 -1.7 11 -11.7 47 47 NE 8 13 30.35 1028 10 16.0934 0 0
6:52 am 06:52 Mostly Clear 29 -1.7 9 -12.8 43 43 NE 6 9 30.38 1029 10 16.0934 0 0
7:52 am 07:52 Mostly Sunny 29 -1.7 8 -13.3 41 41 Calm 30.41 1030 10 16.0934 0 0
8:52 am 08:52 Mostly Sunny 30 -1.1 10 -12.2 43 43 NE 3 6 30.42 1030 10 16.0934 0 0
9:52 am 09:52 Sunny 31 -0.6 11 -11.7 43 43 Calm 30.43 1031 10 16.0934 0 0
10:52 am 10:52 Mostly Sunny 33 0.6 13 -10.6 43 43 S 8 13 30.44 1031 10 16.0934 0 0
11:52 am 11:52 Mostly Sunny 35 1.7 15 -9.4 44 44 SSW 9 15 30.39 1029 10 16.0934 0 0
12:52 pm 12:52 Partly Cloudy 37 2.8 17 -8.3 44 44 S 7 11 30.36 1028 10 16.0934 0 0
1:52 pm 13:52 Partly Cloudy 39 3.9 18 -7.8 43 43 S 10 17 30.33 1027 10 16.0934 0 0
2:52 pm 14:52 Mostly Cloudy 39 3.9 20 -6.7 46 46 S 12 19 30.31 1026 10 16.0934 0 0
3:52 pm 15:52 Mostly Cloudy 39 3.9 19 -7.2 45 45 S 10 17 30.29 1026 10 16.0934 0 0
4:52 pm 16:52 Mostly Cloudy 37 2.8 19 -7.2 48 48 SSE 10 17 30.28 1026 10 16.0934 0 0
5:52 pm 17:52 Mostly Cloudy 36 2.2 18 -7.8 48 48 SSE 9 15 30.27 1025 10 16.0934 0 0
6:52 pm 18:52 Mostly Cloudy 35 1.7 18 -7.8 50 50 SSE 8 13 30.27 1025 10 16.0934 0 0
7:52 pm 19:52 Mostly Cloudy 35 1.7 21 -6.1 57 57 SSE 10 17 30.26 1025 10 16.0934 0 0
8:52 pm 20:52 Mostly Cloudy 35 1.7 23 -5 61 61 SSE 8 13 30.25 1024 10 16.0934 0 0
9:52 pm 21:52 Mostly Cloudy 35 1.7 24 -4.4 64 64 S 10 17 30.23 1024 10 16.0934 0 0
10:52 pm 22:52 Mostly Clear 36 2.2 26 -3.3 67 67 S 15 24 30.2 1023 10 16.0934 0 0
11:52 pm 23:52 Mostly Clear 35 1.7 27 -2.8 72 72 S 18 30 30.18 1022 10 16.0934 0 0

Powered by AerisWeather